GW1114 Weather Reports


time (UTC)temp
F
wind
direction
speed
knots
gust
knots
rain 1hr
in
rain 24hr
in
rain mn
in
humidity
%
barometer
mb
20260504151017 64 0 0.0 3.5 0.00 0.00 0.00 55 1017.1
20260504150515 64 0 0.9 7.0 0.00 0.00 0.00 57 1017.2
20260504141017 57 348 0.9 4.3 0.00 0.00 0.00 67 1017.4
20260504140518 56 335 0.0 2.6 0.00 0.00 0.00 71 1017.3
20260504130516 47 0 0.0 0.0 0.00 0.00 0.00 97 1017.5
20260504110514 42 0 0.0 0.9 0.00 0.00 0.00 91 1017.1
20260504100514 42 0 0.0 0.0 0.00 0.00 0.00 90 1016.8
20260504081532 44 0 0.0 0.0 0.00 0.00 0.00 87 1016.7
20260504081013 44 0 0.0 0.0 0.00 0.00 0.00 87 1016.6
20260504080513 44 0 0.0 0.0 0.00 0.00 0.00 87 1016.6
20260504050515 47 0 0.0 0.0 0.00 0.00 0.00 81 1017.5
20260504045513 47 0 0.0 0.0 0.00 0.00 0.00 81 1017.6
20260504045016 48 0 0.0 0.0 0.00 0.00 0.00 80 1017.6
20260504044541 48 0 0.0 0.0 0.00 0.00 0.00 80 1017.6
20260504044015 48 0 0.0 0.0 0.00 0.00 0.00 80 1017.5
20260504043515 48 0 0.0 0.0 0.00 0.00 0.00 80 1017.4
20260504043030 48 0 0.0 0.0 0.00 0.00 0.00 79 1017.4
20260504042514 48 0 0.0 0.0 0.00 0.00 0.00 79 1017.4
20260504042016 49 0 0.0 0.0 0.00 0.00 0.00 78 1017.5
20260504041530 49 0 0.0 0.0 0.00 0.00 0.00 77 1017.6
20260504041014 49 0 0.0 0.0 0.00 0.00 0.00 78 1017.5
20260504040517 49 0 0.0 0.0 0.00 0.00 0.00 77 1017.6
20260504040043 49 0 0.0 0.0 0.00 0.00 0.00 77 1017.6
20260504035514 49 0 0.0 0.0 0.00 0.00 0.00 77 1017.6
20260504035015 50 0 0.0 0.0 0.00 0.00 0.00 77 1017.6
20260504034536 50 0 0.0 0.0 0.00 0.00 0.00 75 1017.6
20260504034013 50 0 0.0 0.0 0.00 0.00 0.00 76 1017.6
20260504033515 50 0 0.0 0.0 0.00 0.00 0.00 75 1017.6
20260504033030 50 0 0.0 0.0 0.00 0.00 0.00 75 1017.7
20260504032516 51 0 0.0 0.0 0.00 0.00 0.00 73 1017.7
20260504032018 51 0 0.0 0.0 0.00 0.00 0.00 73 1017.7
20260504031531 51 0 0.0 0.0 0.00 0.00 0.00 72 1017.6
20260504031015 51 0 0.0 0.0 0.00 0.00 0.00 72 1017.7
20260504030513 51 0 0.0 0.0 0.00 0.00 0.00 72 1017.7
20260504030032 52 0 0.0 0.0 0.00 0.00 0.00 72 1017.6
20260504025515 52 0 0.0 0.0 0.00 0.00 0.00 71 1017.6
20260504025015 52 0 0.0 0.0 0.00 0.00 0.00 71 1017.6
20260504024530 52 0 0.0 0.0 0.00 0.00 0.00 70 1017.6
20260504024016 53 0 0.0 0.0 0.00 0.00 0.00 69 1017.6
20260504023602 53 0 0.0 0.0 0.00 0.00 0.00 68 1017.6
20260504023030 53 0 0.0 0.0 0.00 0.00 0.00 68 1017.6
20260504022515 53 0 0.0 0.0 0.00 0.00 0.00 68 1017.5
20260504022015 54 0 0.0 0.0 0.00 0.00 0.00 67 1017.4
20260504021534 54 0 0.0 0.0 0.00 0.00 0.00 67 1017.3
20260504021016 54 0 0.0 0.0 0.00 0.00 0.00 66 1017.4
20260504020515 55 0 0.0 0.0 0.00 0.00 0.00 65 1017.2
20260504020032 55 0 0.0 0.0 0.00 0.00 0.00 64 1017.1
20260504015515 55 0 0.0 0.0 0.00 0.00 0.00 64 1016.9
20260504015015 56 0 0.0 0.0 0.00 0.00 0.00 63 1016.9
20260504014534 56 0 0.0 0.0 0.00 0.00 0.00 62 1016.8
20260504014014 57 0 0.0 0.0 0.00 0.00 0.00 61 1016.7
20260504013514 57 0 0.0 0.0 0.00 0.00 0.00 61 1016.7
20260504013045 57 0 0.0 0.0 0.00 0.00 0.00 60 1016.7
20260504012518 58 0 0.0 0.0 0.00 0.00 0.00 59 1016.7
20260504012015 58 0 0.0 0.0 0.00 0.00 0.00 58 1016.6
20260504011531 59 0 0.0 0.0 0.00 0.00 0.00 57 1016.6
20260504011015 59 0 0.0 0.0 0.00 0.00 0.00 56 1016.6
20260504010518 60 0 0.0 0.0 0.00 0.00 0.00 56 1016.6
20260504010035 61 0 0.0 0.0 0.00 0.00 0.00 55 1016.5
20260504005515 61 0 0.0 0.0 0.00 0.00 0.00 55 1016.5
20260504005015 62 0 0.0 0.0 0.00 0.00 0.00 52 1016.5
20260504004535 62 0 0.0 0.0 0.00 0.00 0.00 52 1016.2
20260504004017 63 0 0.0 0.0 0.00 0.00 0.00 51 1016.2
20260504003515 64 0 0.0 0.0 0.00 0.00 0.00 51 1016.1
20260504003032 64 0 0.0 0.0 0.00 0.00 0.00 49 1016.1
20260504002515 65 0 0.0 0.0 0.00 0.00 0.00 49 1016.2
20260504002016 65 0 0.0 0.9 0.00 0.00 0.00 48 1016.2
20260504001530 66 0 0.0 0.9 0.00 0.00 0.00 50 1016.2
20260504001018 66 0 0.0 0.9 0.00 0.00 0.00 48 1016.1
20260504000514 66 0 0.0 3.5 0.00 0.00 0.00 42 1016.1
20260504000032 67 0 0.0 3.5 0.00 0.00 0.00 42 1016.1
20260503235514 67 0 0.0 4.3 0.00 0.00 0.00 42 1016.0
20260503235015 67 348 0.0 4.3 0.00 0.00 0.00 42 1016.1
20260503234532 68 323 0.9 4.3 0.00 0.00 0.00 41 1016.0
20260503234015 69 240 0.9 4.3 0.00 0.00 0.00 40 1016.1
20260503233514 69 321 0.0 4.3 0.00 0.00 0.00 39 1016.0
20260503233038 70 242 0.9 4.3 0.00 0.00 0.00 38 1016.1
20260503232514 70 339 0.0 4.3 0.00 0.00 0.00 39 1016.1
20260503232014 71 352 0.0 2.6 0.00 0.00 0.00 36 1016.1
20260503231534 71 313 0.9 6.1 0.00 0.00 0.00 36 1016.1
20260503231014 72 351 1.7 6.1 0.00 0.00 0.00 34 1016.2
20260503230515 72 257 1.7 3.5 0.00 0.00 0.00 33 1016.2
20260503230032 73 5 0.9 5.2 0.00 0.00 0.00 34 1016.3
20260503225517 73 0 0.9 5.2 0.00 0.00 0.00 35 1016.2
20260503225015 73 327 0.9 4.3 0.00 0.00 0.00 35 1016.3
20260503224531 73 0 0.9 4.3 0.00 0.00 0.00 34 1016.4
20260503224019 73 236 0.9 5.2 0.00 0.00 0.00 33 1016.3
20260503223515 73 300 1.7 5.2 0.00 0.00 0.00 32 1016.2
20260503223036 74 211 1.7 5.2 0.00 0.00 0.00 33 1016.2
20260503222514 74 103 0.9 4.3 0.00 0.00 0.00 34 1016.2
20260503222015 74 325 0.9 4.3 0.00 0.00 0.00 33 1016.3
20260503221542 73 360 1.7 4.3 0.00 0.00 0.00 33 1016.3
20260503221016 73 341 0.9 4.3 0.00 0.00 0.00 34 1016.2
20260503220516 73 0 0.9 4.3 0.00 0.00 0.00 34 1016.3
20260503220032 73 327 0.9 7.8 0.00 0.00 0.00 35 1016.4
20260503215514 73 222 2.6 7.8 0.00 0.00 0.00 33 1016.3
20260503215018 74 225 2.6 7.8 0.00 0.00 0.00 34 1016.4
20260503214534 73 314 0.9 5.2 0.00 0.00 0.00 34 1016.4
20260503214014 73 360 1.7 7.0 0.00 0.00 0.00 33 1016.4
20260503213515 73 203 1.7 7.0 0.00 0.00 0.00 33 1016.5
20260503213041 73 303 0.9 8.7 0.00 0.00 0.00 36 1016.5
20260503212515 73 347 1.7 8.7 0.00 0.00 0.00 35 1016.5
20260503212016 74 360 1.7 8.7 0.00 0.00 0.00 34 1016.5
20260503211535 74 246 3.5 8.7 0.00 0.00 0.00 33 1016.6
20260503211014 75 337 2.6 8.7 0.00 0.00 0.00 33 1016.6
20260503210516 75 31 2.6 7.0 0.00 0.00 0.00 33 1016.6
20260503210030 76 352 0.9 6.1 0.00 0.00 0.00 36 1016.6
20260503205514 76 0 0.9 3.5 0.00 0.00 0.00 37 1016.6
20260503205015 75 243 1.7 4.3 0.00 0.00 0.00 35 1016.7
20260503204532 75 212 1.7 5.2 0.00 0.00 0.00 35 1016.7
20260503204014 75 306 0.0 5.2 0.00 0.00 0.00 37 1016.7
20260503203514 74 313 1.7 4.3 0.00 0.00 0.00 34 1016.8
20260503203029 74 199 1.7 7.0 0.00 0.00 0.00 36 1016.9
20260503202515 73 299 0.9 7.0 0.00 0.00 0.00 38 1017.0
20260503202016 73 360 1.7 7.0 0.00 0.00 0.00 36 1017.1
20260503201535 73 269 2.6 8.7 0.00 0.00 0.00 35 1017.2
20260503201014 73 335 1.7 8.7 0.00 0.00 0.00 34 1017.2
20260503200517 73 327 2.6 8.7 0.00 0.00 0.00 33 1017.4
20260503200033 74 0 1.7 5.2 0.00 0.00 0.00 36 1017.4
20260503195515 74 41 1.7 7.0 0.00 0.00 0.00 34 1017.4
20260503195015 74 348 2.6 7.0 0.00 0.00 0.00 32 1017.6
20260503194532 74 274 1.7 7.0 0.00 0.00 0.00 33 1017.7
20260503194017 74 276 0.9 5.2 0.00 0.00 0.00 35 1017.8
20260503193515 74 235 0.9 7.0 0.00 0.00 0.00 34 1017.9
20260503193030 74 139 1.7 7.0 0.00 0.00 0.00 35 1017.9
20260503192514 74 342 1.7 5.2 0.00 0.00 0.00 35 1018.0
20260503192015 74 0 0.9 5.2 0.00 0.00 0.00 36 1018.0
20260503191534 73 300 1.7 5.2 0.00 0.00 0.00 35 1018.1
20260503191014 73 219 1.7 4.3 0.00 0.00 0.00 35 1018.3
20260503190515 72 29 0.9 9.6 0.00 0.00 0.00 35 1018.4
20260503190045 71 0 1.7 9.6 0.00 0.00 0.00 34 1018.4
20260503185517 71 350 1.7 5.2 0.00 0.00 0.00 37 1018.5
20260503185017 71 18 1.7 5.2 0.00 0.00 0.00 36 1018.5
20260503184531 71 22 2.6 6.1 0.00 0.00 0.00 34 1018.6
20260503184019 71 169 0.9 6.1 0.00 0.00 0.00 36 1018.6
20260503183515 70 329 0.9 5.2 0.00 0.00 0.00 34 1018.7
20260503183035 70 76 1.7 5.2 0.00 0.00 0.00 35 1018.8
20260503182516 70 275 2.6 7.0 0.00 0.00 0.00 33 1018.9
20260503182014 70 327 2.6 7.0 0.00 0.00 0.00 37 1018.8
20260503181532 71 239 1.7 4.3 0.00 0.00 0.00 35 1018.9
20260503181016 70 123 0.9 7.0 0.00 0.00 0.00 39 1018.8
20260503180516 69 103 1.7 9.6 0.00 0.00 0.00 39 1018.9
20260503180039 69 240 2.6 9.6 0.00 0.00 0.00 38 1019.0
20260503175514 69 345 0.9 7.0 0.00 0.00 0.00 40 1018.9
20260503175014 68 261 2.6 7.0 0.00 0.00 0.00 41 1018.9
20260503174529 68 244 1.7 5.2 0.00 0.00 0.00 42 1019.0
20260503174014 68 148 0.9 5.2 0.00 0.00 0.00 42 1019.0
20260503173514 68 17 2.6 5.2 0.00 0.00 0.00 42 1019.1
20260503173034 68 43 0.9 6.1 0.00 0.00 0.00 45 1019.2
20260503172514 67 275 1.7 6.1 0.00 0.00 0.00 44 1019.2
20260503172014 67 286 1.7 5.2 0.00 0.00 0.00 44 1019.2
20260503171540 66 233 0.9 7.0 0.00 0.00 0.00 45 1019.3
20260503171014 65 0 0.9 7.0 0.00 0.00 0.00 46 1019.3
20260503170517 65 76 2.6 7.0 0.00 0.00 0.00 47 1019.3